Regional Weather Roundup
Issued by NWS Mobile, AL

Home | Current Version | Previous Version | Text Only | Print | Product List | Glossary On
Versions: 1 2 3 4 5 6 7 8 9 10 11 12 13 14 15 16 17 18 19 20 21 22 23 24 25 26 27 28 29 30 31 32 33 34 35 36 37 38 39 40 41 42 43 44 45 46 47 48 49 50
062
ASUS44 KMOB 201612
RWRMOB
REGIONAL WEATHER ROUNDUP
NATIONAL WEATHER SERVICE MOBILE AL
1000 AM CST FRI JAN 20 2017

NOTE: "FAIR" INDICATES FEW OR NO CLOUDS BELOW 12,000 FEET WITH NO
      SIGNIFICANT WEATHER AND/OR OBSTRUCTIONS TO VISIBILITY.

  * THESE STATIONS ARE PART OF THE UNIVERSITY OF SOUTH ALABAMA
    MESONET AND ARE NOT UNDER NWS OR FAA QUALITY CONTROL.

ALZ061>064-201700-
COASTAL ALABAMA

CITY           SKY/WX    TMP DP  RH WIND       PRES   REMARKS
MOBILE REG APT PTSUNNY   70  64  81 SW9       29.90R
BROOKLEY FIELD PTSUNNY   72  67  84 SW7       29.90R
USA CAMPUS*      N/A     72  66  83 CALM      29.89S
DOG RIVER*       N/A     70  68  94 S6        30.62


CITY           SKY/WX    TMP DP  RH WIND       PRES   REMARKS
GULF SHORES    MOSUNNY   72  71  97 SW8       29.89S

$$

ALZ051>060-201700-
INTERIOR SOUTHWEST AND SOUTH CENTRAL ALABAMA

CITY           SKY/WX    TMP DP  RH WIND       PRES   REMARKS
GREENVILLE     CLOUDY    67  61  81 VRB6      29.90R
EVERGREEN      PTSUNNY   68  63  84 S7        29.91R
ATMORE*          N/A     68  68 100 S8        29.92S
ANDALUSIA/OPP  PTSUNNY   72  63  73 VRB6      29.91S
ANDALUSIA*       N/A     64  63  94 S6        29.91S
FLORALA APT    CLOUDY    70  64  81 SW8       29.93S
FLORALA*         N/A     70  66  88 CALM      30.60R

$$

FLZ001>006-201700-
WESTERN FLORIDA PANHANDLE

CITY           SKY/WX    TMP DP  RH WIND       PRES   REMARKS
PENSACOLA      PTSUNNY   74  68  81 S7        29.90R
NAS PENSACOLA  PTSUNNY   71  68  90 SW8       29.89S
MILTON         PTSUNNY   71  68  90 SW7       29.90S
WHTNG S FIELD  PTSUNNY   74  69  85 S6        29.91R


CITY           SKY/WX    TMP DP  RH WIND       PRES   REMARKS
JAY*             N/A     70  64  83 S9        29.91R
DUKE FIELD     PTSUNNY   71  70  98 S8        29.90R
CRESTVIEW      CLOUDY    71  66  84 SW7       29.93R
VALPARAISO     PTSUNNY   73  69  87 SW7       29.91R
DESTIN         CLOUDY    75  73  93 VRB3      29.91R

$$

MSZ076-079-201700-
INTERIOR SOUTHEAST MISSISSIPPI

CITY           SKY/WX    TMP DP  RH WIND       PRES   REMARKS
LEAKESVILLE*   NOT AVBL
AGRICOLA*      NOT AVBL

$$

MARINE OBSERVATIONS

STATION/POSITION TIME  TEMP    WIND        PRES    WAVE
                       AIR SEA DIR/SP/G            HT/PER
                 (UTC) (F)     (DEG/KT/KT) (MB)    (FT/S)
PASCAGOULA       1548   68     190/  4/  5 1011.8R
PETIT BOIS ISLND 1548   67     190/  6/  7 1012.5R
GRAND BAY        1445   68     220/  5     1012.0S
KATRINA CUT      1530          190/  5     1011.5R
CEDAR POINT      1530   67     210/  5     1012.2R
E DAUPHIN ISLAND 1500   67     170/  3/  5 1011.6R
MIDDLE BAY LIGHT 1530   66        CALM     1012.5R
USCG MOBILE BAY  1548   67 65  130/  4/  5 1012.8R
STATE DOCKS      1548      61              1012.0R
MEAHER PARK      1530   66     160/  4     1012.2R
WEEKS BAY        1445   68                   N/A
FORT MORGAN      1548   69     190/  8/  9   N/A
12 S ORANGE BCH  1550   69 66  230/  6/ 10 1012.1R   4/ 6
PENSACOLA BAY    1548      65  230/  3/  5 1012.6R
67 S FORT MORGAN 1530   73                 1012.5R

$$

SELECTED LOCATIONS ACROSS THE REGION

CITY           SKY/WX    TMP DP  RH WIND       PRES   REMARKS
NEW ORLEANS    PTSUNNY   72  70  93 S6        29.87R
GULFPORT       PTSUNNY   70  68  93 S7        29.87S
PASCAGOULA AP  CLOUDY    69  65  86 S3        29.89R
PASCAGOULA*    NOT AVBL
HATTIESBURG    CLOUDY    67  64  90 SW3       29.88R
LAUREL         CLOUDY    64  61  88 S6        29.89R
MERIDIAN       PTSUNNY   67  63  87 S9        29.86S
JACKSON        PTSUNNY   66  60  81 S13       29.83R
MONTGOMERY     CLOUDY    68  59  73 S12       29.91R
TROY           CLOUDY    67  63  87 SW10      29.92R
ASHFORD*         N/A     64  63  94 S6        29.91S
DOTHAN         CLOUDY    68  67  96 SW7       29.97R
PANAMA CITY    CLOUDY    74  68  81 W14G22    29.92R

$$





USA.gov is the U.S. government's official web portal to all federal, state and local government web resources and services.